• In Hungary
  • List of Countries
  • For 7 days
  • Water Temperature
  • Satellite Maps
  • Weather Map
  • News
  • Weather Widgets
  • user-avatar
    Login

    Hourly Weather Kildigulovo

    Today, 21 July, Saturday

    Time Temperature Precipitation Wind Pressure Humidity
    00:00 +18°C° 0 mm 4 mps 714 mmHg 96%
    01:00 +18°C° 0 mm 4 mps 714 mmHg 96%
    02:00 +17°C° 0 mm 4 mps 714 mmHg 96%
    03:00 +17°C° 0 mm 4 mps 714 mmHg 96%
    04:00 +17°C° 0 mm 3 mps 714 mmHg 96%
    05:00 +17°C° 0 mm 4 mps 714 mmHg 94%
    06:00 +17°C° 0 mm 4 mps 714 mmHg 92%
    07:00 +16°C° 0 mm 5 mps 715 mmHg 90%
    08:00 +17°C° 0 mm 5 mps 715 mmHg 88%
    09:00 +17°C° 0 mm 5 mps 715 mmHg 85%
    10:00 +17°C° 0 mm 5 mps 715 mmHg 83%
    11:00 +17°C° 0 mm 5 mps 715 mmHg 84%
    12:00 +16°C° 0 mm 5 mps 715 mmHg 85%
    13:00 +16°C° 0 mm 5 mps 715 mmHg 85%
    14:00 +16°C° 0 mm 5 mps 715 mmHg 85%
    15:00 +16°C° 0 mm 5 mps 715 mmHg 85%
    16:00 +16°C° 0 mm 5 mps 715 mmHg 85%
    17:00 +16°C° 0 mm 6 mps 715 mmHg 85%
    18:00 +16°C° 0 mm 6 mps 715 mmHg 85%
    19:00 +16°C° 0 mm 6 mps 715 mmHg 85%
    20:00 +15°C° 0 mm 6 mps 715 mmHg 84%
    21:00 +15°C° 0 mm 6 mps 715 mmHg 84%
    22:00 +15°C° 0 mm 6 mps 715 mmHg 84%
    23:00 +14°C° 0 mm 6 mps 715 mmHg 83%

    Tomorrow, 22 July, Sunday

    Time Temperature Precipitation Wind Pressure Humidity
    00:00 +14°C° 0 mm 6 mps 715 mmHg 83%
    01:00 +13°C° 0 mm 6 mps 715 mmHg 83%
    02:00 +13°C° 0 mm 6 mps 715 mmHg 83%
    03:00 +11°C° 0 mm 6 mps 715 mmHg 83%
    04:00 +10°C° 0 mm 6 mps 715 mmHg 84%
    05:00 +11°C° 0 mm 6 mps 716 mmHg 79%
    06:00 +11°C° 0 mm 7 mps 716 mmHg 75%
    07:00 +12°C° 0 mm 7 mps 716 mmHg 71%
    08:00 +14°C° 0 mm 7 mps 716 mmHg 65%
    09:00 +15°C° 0 mm 7 mps 717 mmHg 58%
    10:00 +16°C° 0 mm 7 mps 717 mmHg 52%
    11:00 +17°C° 0 mm 7 mps 717 mmHg 51%
    12:00 +18°C° 0 mm 7 mps 717 mmHg 49%
    13:00 +18°C° 0 mm 7 mps 717 mmHg 47%
    14:00 +18°C° 0 mm 7 mps 717 mmHg 49%
    15:00 +19°C° 0 mm 6 mps 717 mmHg 50%
    16:00 +19°C° 0 mm 6 mps 718 mmHg 52%
    17:00 +17°C° 0 mm 6 mps 718 mmHg 56%
    18:00 +16°C° 0 mm 5 mps 718 mmHg 61%
    19:00 +15°C° 0 mm 5 mps 718 mmHg 66%
    20:00 +14°C° 0 mm 4 mps 718 mmHg 69%
    21:00 +12°C° 0 mm 4 mps 718 mmHg 73%
    22:00 +11°C° 0 mm 4 mps 719 mmHg 76%
    23:00 +11°C° 0 mm 4 mps 719 mmHg 80%

    Day after tomorrow, 23 July, Monday

    Time Temperature Precipitation Wind Pressure Humidity
    00:00 +10°C° 0 mm 3 mps 719 mmHg 83%
    01:00 +9°C° 0 mm 3 mps 719 mmHg 86%
    02:00 +9°C° 0 mm 3 mps 719 mmHg 89%
    03:00 +8°C° 0 mm 2 mps 719 mmHg 91%
    04:00 +7°C° 0 mm 2 mps 720 mmHg 94%
    05:00 +9°C° 0 mm 2 mps 720 mmHg 86%
    06:00 +10°C° 0 mm 3 mps 720 mmHg 79%
    07:00 +12°C° 0 mm 3 mps 720 mmHg 72%
    08:00 +14°C° 0 mm 3 mps 720 mmHg 65%
    09:00 +15°C° 0 mm 4 mps 721 mmHg 58%
    10:00 +18°C° 0 mm 4 mps 721 mmHg 51%
    11:00 +19°C° 0 mm 4 mps 721 mmHg 48%
    12:00 +20°C° 0 mm 4 mps 721 mmHg 46%
    13:00 +21°C° 0 mm 3 mps 721 mmHg 44%
    14:00 +21°C° 0 mm 3 mps 721 mmHg 45%
    15:00 +21°C° 0 mm 3 mps 720 mmHg 45%
    16:00 +22°C° 0 mm 3 mps 720 mmHg 46%
    17:00 +20°C° 0 mm 3 mps 720 mmHg 54%
    18:00 +19°C° 0 mm 2 mps 720 mmHg 62%
    19:00 +18°C° 0 mm 2 mps 720 mmHg 69%
    20:00 +16°C° 0 mm 2 mps 720 mmHg 76%
    21:00 +15°C° 0 mm 1 mps 720 mmHg 82%
    22:00 +13°C° 0 mm 1 mps 720 mmHg 88%
    23:00 +12°C° 0 mm 1 mps 720 mmHg 90%

    24 July, Tuesday

    Time Temperature Precipitation Wind Pressure Humidity
    00:00 +12°C° 0 mm 1 mps 720 mmHg 91%
    01:00 +12°C° 0 mm 1 mps 720 mmHg 93%
    02:00 +12°C° 0 mm 1 mps 720 mmHg 93%
    03:00 +12°C° 0 mm 1 mps 720 mmHg 93%
    04:00 +12°C° 0 mm 1 mps 720 mmHg 93%
    05:00 +14°C° 0 mm 1 mps 721 mmHg 87%
    06:00 +16°C° 0 mm 1 mps 721 mmHg 80%
    07:00 +18°C° 0 mm 2 mps 721 mmHg 74%
    08:00 +20°C° 0 mm 2 mps 722 mmHg 66%
    09:00 +23°C° 0 mm 2 mps 722 mmHg 57%
    10:00 +25°C° 0 mm 3 mps 722 mmHg 49%
    11:00 +25°C° 0 mm 2 mps 722 mmHg 50%
    12:00 +25°C° 0 mm 2 mps 722 mmHg 52%
    13:00 +25°C° 0 mm 2 mps 722 mmHg 53%
    14:00 +25°C° 0 mm 2 mps 721 mmHg 52%
    15:00 +26°C° 0 mm 2 mps 721 mmHg 52%
    16:00 +26°C° 0 mm 2 mps 721 mmHg 52%
    17:00 +24°C° 0 mm 2 mps 721 mmHg 59%
    18:00 +23°C° 0 mm 2 mps 721 mmHg 66%
    19:00 +21°C° 0 mm 2 mps 721 mmHg 73%
    20:00 +20°C° 0 mm 1 mps 721 mmHg 77%
    21:00 +19°C° 0 mm 1 mps 721 mmHg 80%
    22:00 +16°C° 0 mm 1 mps 721 mmHg 83%
    23:00 +16°C° 0 mm 1 mps 721 mmHg 84%

    25 July, Wednesday

    Time Temperature Precipitation Wind Pressure Humidity
    00:00 +15°C° 0 mm 1 mps 721 mmHg 85%
    01:00 +15°C° 0 mm 1 mps 721 mmHg 86%
    02:00 +15°C° 0 mm 1 mps 721 mmHg 85%
    03:00 +15°C° 0 mm 1 mps 721 mmHg 85%
    04:00 +15°C° 0 mm 1 mps 721 mmHg 85%
    05:00 +16°C° 0 mm 1 mps 722 mmHg 81%
    06:00 +19°C° 0 mm 1 mps 722 mmHg 77%
    07:00 +21°C° 0 mm 1 mps 722 mmHg 73%
    08:00 +23°C° 0 mm 2 mps 722 mmHg 65%
    09:00 +25°C° 0 mm 2 mps 722 mmHg 58%
    10:00 +26°C° 0 mm 3 mps 723 mmHg 50%
    11:00 +26°C° 0.1 mm 3 mps 723 mmHg 51%
    12:00 +27°C° 0.1 mm 3 mps 723 mmHg 53%
    13:00 +27°C° 0.1 mm 3 mps 722 mmHg 54%
    14:00 +26°C° 0.1 mm 3 mps 722 mmHg 55%
    15:00 +26°C° 0.1 mm 3 mps 722 mmHg 55%
    16:00 +26°C° 0.1 mm 3 mps 722 mmHg 56%
    17:00 +25°C° 0 mm 3 mps 722 mmHg 62%
    18:00 +24°C° 0 mm 2 mps 722 mmHg 67%
    19:00 +23°C° 0 mm 2 mps 722 mmHg 73%
    20:00 +20°C° 0 mm 2 mps 722 mmHg 78%
    21:00 +18°C° 0 mm 2 mps 722 mmHg 83%
    22:00 +17°C° 0 mm 2 mps 722 mmHg 88%
    23:00 +16°C° 0 mm 2 mps 723 mmHg 90%

    26 July, Thursday

    Time Temperature Precipitation Wind Pressure Humidity
    00:00 +15°C° 0 mm 2 mps 723 mmHg 92%
    01:00 +15°C° 0 mm 1 mps 723 mmHg 94%
    02:00 +15°C° 0 mm 1 mps 723 mmHg 94%
    03:00 +14°C° 0 mm 1 mps 723 mmHg 94%
    04:00 +14°C° 0 mm 2 mps 723 mmHg 94%
    05:00 +16°C° 0 mm 2 mps 723 mmHg 88%
    06:00 +17°C° 0 mm 2 mps 724 mmHg 82%
    07:00 +19°C° 0 mm 2 mps 724 mmHg 75%
    08:00 +21°C° 0 mm 2 mps 724 mmHg 66%
    09:00 +24°C° 0 mm 3 mps 724 mmHg 57%
    10:00 +26°C° 0 mm 3 mps 724 mmHg 48%
    11:00 +27°C° 0 mm 3 mps 724 mmHg 48%
    12:00 +27°C° 0 mm 3 mps 724 mmHg 48%
    13:00 +27°C° 0 mm 3 mps 724 mmHg 48%
    14:00 +27°C° 0 mm 2 mps 724 mmHg 50%
    15:00 +27°C° 0 mm 2 mps 724 mmHg 52%
    16:00 +27°C° 0 mm 2 mps 724 mmHg 54%
    17:00 +26°C° 0 mm 2 mps 723 mmHg 60%
    18:00 +25°C° 0 mm 2 mps 723 mmHg 65%
    19:00 +24°C° 0 mm 1 mps 723 mmHg 71%
    20:00 +22°C° 0 mm 1 mps 723 mmHg 75%
    21:00 +21°C° 0 mm 1 mps 723 mmHg 78%
    22:00 +19°C° 0 mm 1 mps 723 mmHg 81%
    23:00 +19°C° 0 mm 1 mps 723 mmHg 82%
    Show more